Seldovia, AK

3:17 PM AKDT on June 28, 2017 (GMT -0800)
Seldovia

Weather History for PASO - December, 2011

Change the Weather History Date:

Tuesday, December 20, 2011

  Actual Average (PAHO) Record (PAHO)
Temperature  
Mean Temperature 33 °F -  
Max Temperature 39 °F 31 °F 50 °F (1969)
Min Temperature 27 °F 22 °F -5 °F (1933)
Degree Days  
Heating Degree Days 32    
Moisture  
Dew Point 33 °F    
Average Humidity 89    
Maximum Humidity 100    
Minimum Humidity 65    
Precipitation  
Precipitation 0.56 in - - ()
Sea Level Pressure  
Sea Level Pressure 29.54 in    
Wind  
Wind Speed 8 mph (South)    
Max Wind Speed 18 mph    
Max Gust Speed 30 mph    
Visibility 7 miles    
Events Rain , Snow    
Averages and records for this station are not official NWS values.
T = Trace of Precipitation, MM = Missing Value Source: NWS Daily Summary

Daily Weather History Graph

Daily Weather History Graph

Search for Another Location

Airport or City:

Trip Planner

Search our weather history database for the weather conditions in past years. The results will help you decide how hot, cold, wet, or windy it might be!

Date:

Astronomy

Dec. 20, 2011 Rise Set
Actual Time 10:02 AM AKST 4:05 PM AKST
Civil Twilight 9:06 AM AKST 5:01 PM AKST
Nautical Twilight 8:11 AM AKST 5:57 PM AKST
Astronomical Twilight 7:20 AM AKST 6:48 PM AKST
Moon 4:59 AM AKST (12/20) 1:20 PM AKST (12/20)
Length of Visible Light 7h 54m
Length of Day
6h 02m
Waning Crescent, 20% of the Moon is Illuminated
Dec 20
Waning Crescent
Dec 24
New
Dec 31
First Quarter
Jan 8
Full
Jan 16
Last Quarter

Hourly Weather History & Observations

Time (AKST) Temp. Windchill Dew Point Humidity Pressure Visibility Wind Dir Wind Speed Gust Speed Precip Events Conditions
12:53 AM 35.1 °F 26.9 °F 26.1 °F 70% 29.72 in 10.0 mi South 11.5 mph 19.6 mph N/A   Clear
1:53 AM 30.9 °F 27.5 °F 28.9 °F 92% 29.75 in 10.0 mi Variable 3.5 mph - N/A   Mostly Cloudy
3:53 AM 27.0 °F 23.0 °F 26.1 °F 96% 29.77 in 10.0 mi SSW 3.5 mph - N/A   Clear
4:53 AM 28.0 °F - 27.0 °F 96% 29.77 in 10.0 mi Calm Calm - N/A   Clear
5:53 AM 30.0 °F - 28.0 °F 92% 29.75 in 10.0 mi Calm Calm - N/A   Clear
6:53 AM 30.0 °F - 28.9 °F 96% 29.73 in 10.0 mi Calm Calm - N/A   Clear
7:53 AM 36.0 °F 28.5 °F 30.9 °F 82% 29.69 in 6.0 mi South 10.4 mph - 0.00 in Snow Light Snow
8:31 AM 35.6 °F 29.2 °F 32.0 °F 87% 29.67 in 4.0 mi South 8.1 mph 16.1 mph 0.01 in Snow Light Snow
8:51 AM 35.6 °F 30.7 °F 33.8 °F 93% 29.66 in 4.0 mi South 5.8 mph - 0.02 in Snow Light Snow
8:53 AM 35.1 °F 31.0 °F 33.1 °F 92% 29.66 in 4.0 mi South 4.6 mph - 0.02 in Snow Light Snow
9:02 AM 33.8 °F - 33.8 °F 100% 29.66 in 3.0 mi Calm Calm - 0.01 in Snow Light Snow
9:07 AM 33.8 °F 29.6 °F 33.8 °F 100% 29.65 in 1.8 mi Variable 4.6 mph - 0.02 in Snow Light Snow
9:31 AM 33.8 °F 27.7 °F 33.8 °F 100% 29.63 in 2.5 mi Variable 6.9 mph - 0.06 in Snow Light Snow
9:53 AM 34.0 °F 27.2 °F 34.0 °F 100% 29.61 in 2.5 mi South 8.1 mph - 0.11 in Snow Light Snow
10:24 AM 33.8 °F 24.3 °F 33.8 °F 100% 29.57 in 1.8 mi South 13.8 mph 21.9 mph 0.11 in Snow Light Snow
10:35 AM 35.6 °F 25.9 °F 33.8 °F 93% 29.56 in 2.0 mi South 16.1 mph 28.8 mph 0.15 in Snow Light Snow
10:53 AM 35.1 °F 25.9 °F 34.0 °F 96% 29.54 in 3.0 mi South 13.8 mph 28.8 mph 0.20 in Snow Light Snow
11:15 AM 35.6 °F 27.1 °F 33.8 °F 93% 29.53 in 2.0 mi SSW 12.7 mph 29.9 mph 0.05 in Snow Light Snow
11:53 AM 36.0 °F 25.6 °F 34.0 °F 93% 29.50 in 2.5 mi South 18.4 mph 27.6 mph 0.14 in Rain Rain
12:19 PM 35.6 °F 26.6 °F 35.6 °F 100% 29.47 in 2.0 mi South 13.8 mph 29.9 mph 0.03 in Rain Rain
12:34 PM 37.4 °F 28.9 °F 35.6 °F 93% 29.46 in 3.0 mi South 13.8 mph 23.0 mph 0.04 in Rain Light Rain
12:53 PM 39.0 °F 30.3 °F 37.0 °F 93% 29.45 in 5.0 mi South 16.1 mph 26.5 mph 0.05 in Rain Light Rain
1:12 PM 39.2 °F 32.0 °F 37.4 °F 93% 29.44 in 6.0 mi South 11.5 mph 24.2 mph 0.01 in Rain Light Rain
1:53 PM 39.0 °F 34.8 °F 37.0 °F 93% 29.43 in 7.0 mi Variable 5.8 mph 19.6 mph 0.04 in Rain Light Rain
2:06 PM 39.2 °F 33.6 °F 37.4 °F 93% 29.43 in 9.0 mi SSW 8.1 mph - 0.00 in Rain Light Rain
2:53 PM 39.9 °F 32.5 °F 37.0 °F 89% 29.40 in 10.0 mi South 12.7 mph 20.7 mph 0.00 in   Overcast
3:53 PM 39.9 °F 31.8 °F 34.0 °F 79% 29.39 in 10.0 mi South 15.0 mph 26.5 mph N/A   Overcast
4:53 PM 39.9 °F 32.5 °F 34.0 °F 79% 29.37 in 10.0 mi South 12.7 mph 21.9 mph N/A   Overcast
5:53 PM 39.0 °F 31.8 °F 34.0 °F 82% 29.37 in 10.0 mi South 11.5 mph 16.1 mph N/A   Overcast
6:53 PM 39.0 °F 31.8 °F 33.1 °F 79% 29.36 in 10.0 mi South 11.5 mph - N/A   Scattered Clouds
7:53 PM 39.0 °F 31.0 °F 34.0 °F 82% 29.36 in 10.0 mi South 13.8 mph 17.3 mph N/A   Mostly Cloudy
8:53 PM 39.0 °F 31.0 °F 32.0 °F 76% 29.36 in 10.0 mi South 13.8 mph 24.2 mph 0.00 in   Mostly Cloudy
9:53 PM 37.9 °F 30.0 °F 30.0 °F 73% 29.40 in 10.0 mi South 12.7 mph 21.9 mph N/A   Scattered Clouds
10:53 PM 37.9 °F 30.9 °F 28.9 °F 70% 29.44 in 10.0 mi South 10.4 mph - 0.00 in   Overcast
11:53 PM 37.9 °F 32.7 °F 27.0 °F 65% 29.48 in 10.0 mi Variable 6.9 mph 20.7 mph 0.00 in   Overcast